Volver al catálogo

GRIFON-1

ActivoCienciaSSO
NORAD 67267·PAYLOAD·🇷🇺 Russia
Este nombre de satélite aún no ha sido confirmado por fuentes oficiales.

Lanzado Dec 28, 2025 desde Vostochny Cosmodrome

Loading…

Próximos Pases (próximas 24 horas)

TLE

ActualizadoSource: Space-Track

Época: Sep 13, 2026, 17:41 UTC

1 67267U 25313V   26256.73738702  .00007414  00000-0  29374-3 0  9994
2 67267  97.3871 330.3665 0014495  61.1883 299.0809 15.25606029 39455

Sigue GRIFON-1 en tiempo real con AllMySat

Download on the App Store